FW2389 Weather Reports


time (UTC)temp
F
wind
direction
speed
knots
gust
knots
rain 1hr
in
rain 24hr
in
rain mn
in
humidity
%
barometer
mb
20260506202045 59 260 16.5 22.6 0.00 0.00 0.00 87 1010.3
20260506201545 59 253 15.6 24.3 0.00 0.00 0.00 87 1010.2
20260506201048 60 250 20.0 25.2 0.00 0.00 0.00 86 1010.3
20260506200543 60 252 16.5 25.2 0.00 0.00 0.00 87 1010.3
20260506200112 59 249 16.5 25.2 0.00 0.00 0.00 87 1010.4
20260506195542 59 260 17.4 25.2 0.00 0.00 0.00 88 1010.5
20260506195041 59 252 14.8 21.7 0.00 0.00 0.00 87 1010.5
20260506194541 59 263 14.8 21.7 0.00 0.00 0.00 87 1010.7
20260506194041 59 278 15.6 22.6 0.00 0.00 0.00 87 1010.9
20260506193542 59 250 15.6 22.6 0.00 0.00 0.00 88 1010.9
20260506193042 59 272 14.8 25.2 0.00 0.00 0.00 88 1011.2
20260506192539 59 269 16.5 25.2 0.00 0.00 0.00 88 1011.1
20260506192039 59 257 13.0 23.5 0.00 0.00 0.00 88 1011.2
20260506191539 59 255 14.8 23.5 0.00 0.00 0.00 88 1011.3
20260506191038 59 257 14.8 21.7 0.00 0.00 0.00 89 1011.1
20260506190538 59 242 13.9 18.2 0.00 0.00 0.00 89 1011.2
20260506190036 59 250 11.3 20.0 0.00 0.00 0.00 89 1011.4
20260506185538 58 238 13.0 24.3 0.00 0.00 0.00 89 1011.3
20260506185039 58 257 17.4 30.4 0.00 0.00 0.00 88 1011.3
20260506184535 58 252 20.0 30.4 0.00 0.00 0.00 88 1011.2
20260506184036 58 247 20.9 30.4 0.00 0.00 0.00 88 1011.4
20260506183535 58 255 20.9 30.4 0.00 0.00 0.00 87 1011.6
20260506183035 58 264 22.6 27.8 0.00 0.00 0.00 87 1011.4
20260506182533 58 257 19.1 26.1 0.00 0.00 0.00 88 1011.8
20260506182033 58 260 17.4 27.8 0.00 0.00 0.00 88 1011.8
20260506181536 58 257 17.4 29.5 0.00 0.00 0.00 88 1011.9
20260506181032 58 257 19.1 29.5 0.00 0.00 0.00 87 1012.1
20260506180532 58 262 18.2 31.3 0.00 0.00 0.00 87 1012.1
20260506180038 59 255 19.1 35.6 0.00 0.00 0.00 86 1012.3
20260506175530 59 266 26.1 35.6 0.00 0.00 0.00 84 1012.3
20260506175028 59 259 21.7 32.2 0.00 0.00 0.00 84 1012.4
20260506174530 60 274 24.3 32.2 0.00 0.00 0.00 83 1012.5
20260506174028 60 245 23.5 32.2 0.00 0.00 0.00 83 1012.3
20260506173529 60 257 21.7 29.5 0.00 0.00 0.00 83 1012.5
20260506173028 60 248 20.0 27.8 0.00 0.00 0.00 82 1012.4
20260506172527 61 269 18.2 24.3 0.00 0.00 0.00 82 1012.5
20260506172030 61 250 15.6 24.3 0.00 0.00 0.00 82 1012.7
20260506171543 61 271 13.9 25.2 0.00 0.00 0.00 82 1012.7
20260506171026 61 254 20.0 28.7 0.00 0.00 0.00 82 1012.6
20260506170525 61 259 21.7 30.4 0.00 0.00 0.00 82 1012.8
20260506170025 61 245 20.0 32.2 0.00 0.00 0.00 82 1012.8
20260506165525 61 260 20.9 32.2 0.00 0.00 0.00 82 1012.7
20260506165025 61 245 17.4 30.4 0.00 0.00 0.00 82 1012.9
20260506164524 61 248 22.6 30.4 0.00 0.00 0.00 82 1012.9
20260506164024 61 259 23.5 33.9 0.00 0.00 0.00 81 1012.7
20260506163524 61 248 23.5 33.9 0.00 0.00 0.00 81 1012.7
20260506163028 61 248 20.0 33.0 0.00 0.00 0.00 82 1012.7
20260506162524 61 253 24.3 35.6 0.00 0.00 0.00 82 1012.8
20260506162023 61 252 27.8 35.6 0.00 0.00 0.00 81 1012.7
20260506161535 61 249 23.5 32.2 0.00 0.00 0.00 81 1013.0
20260506161022 61 271 23.5 32.2 0.00 0.00 0.00 81 1013.2
20260506160524 61 248 24.3 36.5 0.00 0.00 0.00 81 1013.3
20260506160020 61 250 26.1 36.5 0.00 0.00 0.00 82 1013.2
20260506155520 61 240 21.7 32.2 0.00 0.00 0.00 82 1013.4
20260506155020 61 262 22.6 32.2 0.00 0.00 0.00 82 1013.3
20260506154520 60 249 26.1 32.2 0.00 0.00 0.00 82 1013.3
20260506154020 60 256 24.3 32.2 0.00 0.00 0.00 82 1013.4
20260506153520 60 259 25.2 31.3 0.00 0.00 0.00 82 1013.4
20260506153020 60 248 23.5 33.9 0.00 0.00 0.00 82 1013.3
20260506152519 60 242 26.1 34.8 0.00 0.00 0.00 83 1013.2
20260506152019 60 251 26.1 34.8 0.00 0.00 0.00 82 1013.3
20260506151519 61 246 22.6 33.9 0.00 0.00 0.00 82 1013.6
20260506151018 61 265 26.1 33.9 0.00 0.00 0.00 81 1013.6
20260506150518 61 260 25.2 32.2 0.00 0.00 0.00 82 1013.4
20260506150023 61 236 24.3 34.8 0.00 0.00 0.00 82 1013.5
20260506145517 60 268 25.2 34.8 0.00 0.00 0.00 82 1013.5
20260506145017 60 245 25.2 32.2 0.00 0.00 0.00 83 1013.4
20260506144516 60 259 22.6 33.0 0.00 0.00 0.00 83 1013.6
20260506144016 59 256 23.5 33.0 0.00 0.00 0.00 84 1013.5
20260506143516 60 251 22.6 31.3 0.00 0.00 0.00 83 1013.7
20260506143016 60 252 21.7 32.2 0.00 0.00 0.00 83 1013.8
20260506142516 60 252 20.9 32.2 0.00 0.00 0.00 83 1013.9
20260506142015 60 255 22.6 32.2 0.00 0.00 0.00 83 1013.7
20260506141515 60 249 21.7 32.2 0.00 0.00 0.00 83 1013.7
20260506141015 60 252 21.7 35.6 0.00 0.00 0.00 83 1013.7
20260506140515 60 258 21.7 35.6 0.00 0.00 0.00 83 1013.5
20260506140016 60 262 24.3 35.6 0.00 0.00 0.00 83 1013.6
20260506135514 60 259 23.5 35.6 0.00 0.00 0.00 83 1013.6
20260506135024 60 265 21.7 32.2 0.00 0.00 0.00 83 1013.6
20260506134526 60 244 23.5 32.2 0.00 0.00 0.00 82 1013.4
20260506134013 60 240 20.0 32.2 0.00 0.00 0.00 82 1013.7
20260506133511 60 252 20.9 29.5 0.00 0.00 0.00 83 1013.5
20260506133012 59 237 21.7 29.5 0.00 0.00 0.00 84 1013.6
20260506132510 59 256 22.6 28.7 0.00 0.00 0.00 85 1013.4
20260506132010 59 266 22.6 28.7 0.00 0.00 0.00 84 1013.5
20260506131510 59 243 19.1 30.4 0.00 0.00 0.00 84 1013.6
20260506131010 59 248 18.2 33.0 0.00 0.00 0.00 84 1013.9
20260506130509 59 261 20.9 33.0 0.00 0.00 0.00 84 1013.9
20260506130010 59 252 20.0 28.7 0.00 0.00 0.00 84 1014.0
20260506125509 59 238 17.4 28.7 0.00 0.00 0.00 85 1014.0
20260506125008 59 255 21.7 30.4 0.00 0.00 0.00 84 1014.0
20260506124513 59 252 23.5 31.3 0.00 0.00 0.00 84 1013.9
20260506124008 59 247 21.7 31.3 0.00 0.00 0.00 85 1013.9
20260506123508 59 245 20.9 31.3 0.00 0.00 0.00 85 1013.9
20260506123007 59 258 24.3 31.3 0.00 0.00 0.00 85 1014.0
20260506122508 59 250 22.6 32.2 0.00 0.00 0.00 85 1013.8
20260506122007 59 255 23.5 32.2 0.00 0.00 0.00 85 1013.7
20260506121509 58 260 20.0 32.2 0.00 0.00 0.00 86 1013.9
20260506121006 58 244 20.0 30.4 0.00 0.00 0.00 86 1013.9
20260506120505 58 255 20.9 29.5 0.00 0.00 0.00 86 1013.9
20260506120010 58 250 22.6 29.5 0.00 0.00 0.00 86 1013.9
20260506115505 58 256 20.0 31.3 0.00 0.00 0.00 86 1013.9
20260506115004 58 250 23.5 31.3 0.00 0.00 0.00 87 1013.9
20260506114508 58 256 23.5 29.5 0.00 0.00 0.00 86 1013.9
20260506114005 58 246 19.1 26.1 0.00 0.00 0.00 87 1014.0
20260506113505 58 254 20.9 28.7 0.00 0.00 0.00 87 1013.8
20260506113006 58 252 19.1 28.7 0.00 0.00 0.00 87 1014.0
20260506112505 58 246 19.1 27.8 0.00 0.00 0.00 87 1014.0
20260506112004 58 245 21.7 27.8 0.00 0.00 0.00 87 1013.9
20260506111504 57 248 21.7 29.5 0.00 0.00 0.00 87 1013.9
20260506111004 57 247 24.3 30.4 0.00 0.00 0.00 88 1013.9
20260506110504 57 254 22.6 30.4 0.00 0.00 0.00 88 1014.0
20260506110009 57 267 20.0 29.5 0.00 0.00 0.00 88 1014.0
20260506105503 57 256 23.5 29.5 0.00 0.00 0.00 88 1013.9
20260506105003 57 261 22.6 28.7 0.00 0.00 0.00 88 1014.0
20260506104503 57 248 18.2 31.3 0.00 0.00 0.00 88 1014.0
20260506104002 57 244 22.6 31.3 0.00 0.00 0.00 88 1013.9
20260506103502 57 253 21.7 30.4 0.00 0.00 0.00 88 1013.8
20260506103007 57 263 23.5 31.3 0.00 0.00 0.00 88 1013.9
20260506102502 57 253 25.2 31.3 0.00 0.00 0.00 88 1013.8
20260506102101 57 247 23.5 30.4 0.00 0.00 0.00 88 1013.7
20260506101600 57 255 23.5 30.4 0.00 0.00 0.00 88 1013.6
20260506101059 57 248 21.7 30.4 0.00 0.00 0.00 88 1013.7
20260506100558 57 239 22.6 28.7 0.00 0.00 0.00 89 1013.5
20260506100104 57 249 22.6 27.8 0.00 0.00 0.00 89 1013.7
20260506095558 57 253 20.0 26.9 0.00 0.00 0.00 89 1013.6
20260506095058 57 241 20.0 30.4 0.00 0.00 0.00 89 1013.6
20260506094557 57 258 20.0 30.4 0.00 0.00 0.00 89 1013.6
20260506094057 57 259 22.6 29.5 0.00 0.00 0.00 89 1013.6
20260506093559 57 246 21.7 31.3 0.00 0.00 0.00 88 1013.7
20260506093058 57 240 24.3 31.3 0.00 0.00 0.00 89 1013.8
20260506092552 57 250 20.0 28.7 0.00 0.00 0.00 88 1013.7
20260506092053 57 264 20.9 30.4 0.00 0.00 0.00 89 1013.3
20260506091551 57 255 21.7 31.3 0.00 0.00 0.00 88 1013.4
20260506091051 57 242 24.3 31.3 0.00 0.00 0.00 88 1013.5
20260506090551 57 242 24.3 31.3 0.00 0.00 0.00 88 1013.5
20260506090050 57 248 21.7 29.5 0.00 0.00 0.00 89 1013.7
20260506085548 57 250 20.9 29.5 0.00 0.00 0.00 89 1013.9
20260506085048 57 249 20.9 29.5 0.00 0.00 0.00 89 1013.9
20260506084548 57 252 19.1 27.8 0.00 0.00 0.00 89 1013.9
20260506084049 57 253 20.9 29.5 0.00 0.00 0.00 89 1014.0
20260506083547 57 252 22.6 29.5 0.00 0.00 0.00 89 1014.0
20260506083107 57 241 17.4 27.8 0.00 0.00 0.00 89 1014.0
20260506082546 57 242 20.9 29.5 0.00 0.00 0.00 89 1014.0
20260506082048 57 253 22.6 29.5 0.00 0.00 0.00 88 1013.7
20260506081549 57 246 22.6 30.4 0.00 0.00 0.00 88 1013.7
20260506081045 57 258 21.7 32.2 0.00 0.00 0.00 88 1013.9
20260506080545 58 258 24.3 32.2 0.00 0.00 0.00 88 1013.9
20260506073043 58 258 23.5 33.0 0.00 0.00 0.00 86 1014.1
20260506072540 58 252 21.7 32.2 0.00 0.00 0.00 86 1014.1
20260506072040 58 252 22.6 31.3 0.00 0.00 0.00 86 1014.0
20260506071540 58 251 24.3 34.8 0.00 0.00 0.00 86 1014.0
20260506071039 58 276 23.5 34.8 0.00 0.00 0.00 86 1013.9
20260506070539 58 249 24.3 32.2 0.00 0.00 0.00 86 1014.0
20260506062035 58 242 24.3 31.3 0.00 0.00 0.00 86 1014.0
20260506061539 58 252 22.6 31.3 0.00 0.00 0.00 86 1014.0
20260506061035 58 248 25.2 33.9 0.00 0.00 0.00 86 1014.0
20260506060532 58 255 22.6 35.6 0.00 0.00 0.00 86 1014.0
20260506051027 58 245 23.5 33.9 0.00 0.00 0.00 85 1014.3
20260506050527 58 245 24.3 33.0 0.00 0.00 0.00 85 1014.3
20260506045024 58 253 24.3 33.9 0.00 0.00 0.00 85 1014.4
20260506044523 58 255 21.7 33.0 0.00 0.00 0.00 85 1014.4
20260506044027 59 248 26.1 33.0 0.00 0.00 0.00 85 1014.3
20260506043520 59 243 21.7 33.0 0.00 0.00 0.00 84 1014.5
20260506043020 59 250 24.3 34.8 0.00 0.00 0.00 84 1014.5
20260506042520 59 240 27.8 34.8 0.00 0.00 0.00 84 1014.4
20260506042019 59 247 24.3 33.0 0.00 0.00 0.00 84 1014.4
20260506041518 59 251 23.5 33.0 0.00 0.00 0.00 84 1014.3
20260506041017 59 248 23.5 36.5 0.00 0.00 0.00 84 1014.4
20260506040519 59 247 22.6 36.5 0.00 0.00 0.00 83 1014.4
20260506040018 59 250 25.2 33.0 0.00 0.00 0.00 83 1014.5
20260506035514 59 264 22.6 30.4 0.00 0.00 0.00 83 1014.5
20260506035014 59 249 22.6 33.9 0.00 0.00 0.00 82 1014.5
20260506034514 59 244 23.5 33.9 0.00 0.00 0.00 82 1014.4
20260506034013 59 255 24.3 32.2 0.00 0.00 0.00 81 1014.3
20260506033512 59 247 22.6 33.9 0.00 0.00 0.00 80 1014.5
20260506033015 60 260 25.2 33.9 0.00 0.00 0.00 80 1014.4
20260506032512 60 233 22.6 33.9 0.00 0.00 0.00 80 1014.3
20260506032012 59 250 20.9 35.6 0.00 0.00 0.00 80 1014.4
20260506031514 59 252 24.3 33.0 0.00 0.00 0.00 80 1014.3
20260506031013 59 252 23.5 33.0 0.00 0.00 0.00 80 1014.2
20260506030514 59 256 23.5 30.4 0.00 0.00 0.00 80 1014.3
20260506030014 59 249 20.0 30.4 0.00 0.00 0.00 80 1014.5
20260506025511 59 255 20.9 31.3 0.00 0.00 0.00 80 1014.3
20260506025011 59 269 23.5 31.3 0.00 0.00 0.00 80 1014.4
20260506024526 59 251 20.9 30.4 0.00 0.00 0.00 80 1014.3
20260506024011 59 245 22.6 30.4 0.00 0.00 0.00 80 1014.3
20260506023511 59 272 20.9 32.2 0.00 0.00 0.00 79 1014.3
20260506023011 59 248 22.6 32.2 0.00 0.00 0.00 79 1014.3
20260506022510 59 238 22.6 29.5 0.00 0.00 0.00 80 1014.2
20260506022014 59 256 20.9 29.5 0.00 0.00 0.00 79 1014.4
20260506021511 60 257 23.5 33.0 0.00 0.00 0.00 78 1014.3
20260506021010 60 257 22.6 33.0 0.00 0.00 0.00 78 1014.4
20260506020510 60 258 19.1 30.4 0.00 0.00 0.00 78 1014.2
20260506020009 60 248 21.7 31.3 0.00 0.00 0.00 77 1014.2
20260506015513 60 257 21.7 31.3 0.00 0.00 0.00 77 1014.1
20260506015011 60 261 21.7 33.0 0.00 0.00 0.00 77 1014.2
20260506014513 60 259 22.6 33.0 0.00 0.00 0.00 77 1014.1
20260506014007 60 253 20.9 32.2 0.00 0.00 0.00 77 1014.1
20260506013507 60 246 23.5 32.2 0.00 0.00 0.00 76 1014.0
20260506013007 60 257 20.9 32.2 0.00 0.00 0.00 76 1014.0
20260506012507 61 253 23.5 32.2 0.00 0.00 0.00 76 1013.9
20260506012007 61 260 22.6 38.2 0.00 0.00 0.00 76 1013.8
20260506011508 61 252 25.2 38.2 0.00 0.00 0.00 75 1013.9
20260506011005 60 257 22.6 32.2 0.00 0.00 0.00 76 1013.7
20260506010511 60 255 25.2 33.9 0.00 0.00 0.00 76 1013.6
20260506010005 60 255 23.5 34.8 0.00 0.00 0.00 76 1013.6
20260506005505 60 260 22.6 36.5 0.00 0.00 0.00 76 1013.7
20260506005004 60 250 26.1 36.5 0.00 0.00 0.00 75 1013.6
20260506004506 60 248 26.1 36.5 0.00 0.00 0.00 76 1013.5
20260506004005 60 253 24.3 35.6 0.00 0.00 0.00 76 1013.4
20260506003504 60 263 23.5 33.0 0.00 0.00 0.00 76 1013.3
20260506003005 60 258 24.3 33.0 0.00 0.00 0.00 76 1013.1
20260506002504 60 256 24.3 33.9 0.00 0.00 0.00 76 1012.9
20260506002005 60 246 23.5 34.8 0.00 0.00 0.00 76 1012.9
20260506001505 60 252 26.1 39.1 0.00 0.00 0.00 75 1012.6
20260506001004 60 254 23.5 34.8 0.00 0.00 0.00 76 1012.6
20260506000506 60 264 24.3 34.8 0.00 0.00 0.00 76 1012.5
20260506000003 60 257 24.3 35.6 0.00 0.00 0.00 76 1012.6
20260505235504 60 256 26.9 35.6 0.00 0.00 0.00 76 1012.3
20260505235003 60 258 25.2 35.6 0.00 0.00 0.00 77 1012.3
20260505234503 60 258 21.7 35.6 0.00 0.00 0.00 77 1012.5
20260505234005 59 265 24.3 36.5 0.00 0.00 0.00 77 1012.3
20260505233503 59 250 27.8 36.5 0.00 0.00 0.00 77 1012.3
20260505233002 59 253 24.3 33.9 0.00 0.00 0.00 78 1012.4
20260505232505 59 256 24.3 33.9 0.00 0.00 0.00 78 1012.4
20260505232002 59 251 24.3 32.2 0.00 0.00 0.00 78 1012.6
20260505231504 59 257 23.5 33.0 0.00 0.00 0.00 78 1012.6
20260505231001 60 243 23.5 33.0 0.00 0.00 0.00 77 1012.5
20260505230500 59 252 22.6 31.3 0.00 0.00 0.00 77 1012.4
20260505230003 59 262 22.6 31.3 0.00 0.00 0.00 78 1012.4
20260505225604 59 245 20.9 33.0 0.00 0.00 0.00 78 1012.4
20260505225101 59 247 24.3 33.0 0.00 0.00 0.00 77 1012.4
20260505224601 59 250 25.2 33.0 0.00 0.00 0.00 77 1012.3
20260505224103 59 248 24.3 32.2 0.00 0.00 0.00 77 1012.3
20260505223603 59 236 25.2 39.1 0.00 0.00 0.00 77 1012.2
20260505223104 60 243 26.9 39.1 0.00 0.00 0.00 76 1012.3
20260505222603 60 248 25.2 35.6 0.00 0.00 0.00 76 1012.3
20260505222100 60 267 22.6 30.4 0.00 0.00 0.00 76 1012.3
20260505221603 60 256 20.9 32.2 0.00 0.00 0.00 76 1012.2
20260505221059 60 255 20.0 32.2 0.00 0.00 0.00 76 1012.0
20260505220600 60 265 21.7 33.0 0.00 0.00 0.00 76 1012.0
20260505220100 60 256 26.1 33.0 0.00 0.00 0.00 75 1012.0
20260505215558 60 253 21.7 33.9 0.00 0.00 0.00 75 1012.1
20260505215058 60 269 22.6 33.9 0.00 0.00 0.00 75 1012.2
20260505214558 60 249 20.0 29.5 0.00 0.00 0.00 75 1012.2
20260505214100 60 250 19.1 27.8 0.00 0.00 0.00 75 1012.3
20260505213558 60 249 20.0 28.7 0.00 0.00 0.00 74 1012.3
20260505213057 61 248 20.0 28.7 0.00 0.00 0.00 74 1012.3
20260505212601 61 239 16.5 22.6 0.00 0.00 0.00 74 1012.2
20260505212057 61 266 17.4 22.6 0.00 0.00 0.00 73 1012.2
20260505211557 62 247 14.8 20.9 0.00 0.00 0.00 74 1012.2
20260505211056 61 243 13.0 20.0 0.00 0.00 0.00 74 1012.1
20260505210556 62 268 13.0 21.7 0.00 0.00 0.00 74 1012.1
20260505210056 62 268 13.9 20.0 0.00 0.00 0.00 74 1012.2
20260505205556 62 243 13.9 19.1 0.00 0.00 0.00 74 1012.2
20260505205056 61 255 11.3 16.5 0.00 0.00 0.00 77 1012.1
20260505204601 60 241 9.6 13.9 0.00 0.00 0.00 78 1012.3
20260505204056 60 240 11.3 16.5 0.00 0.00 0.00 77 1012.1
20260505203555 60 232 13.9 16.5 0.00 0.00 0.00 77 1012.1
20260505203101 60 233 13.9 16.5 0.00 0.00 0.00 77 1012.1
20260505202555 60 222 12.2 15.6 0.00 0.00 0.00 77 1012.2